N9DRW Weather Reports


Display with metric or nautical units.
time (UTC)temp
F
wind
direction
speed
MPH
gust
MPH
rain 1hr
in
rain 24hr
in
rain mn
in
humidity
%
barometer
mb
20260505055205 52 11 5.0 17.0 0.00 0.00 0.00 47
20260505054206 53 22 7.0 20.0 0.00 0.00 0.00 47
20260505053205 53 1 9.0 20.0 0.00 0.00 0.00 46
20260505052206 54 357 6.0 12.0 0.00 0.00 0.00 46
20260505051206 54 352 4.0 12.0 0.00 0.00 0.00 45
20260505050206 55 9 6.0 14.0 0.00 0.00 0.00 44
20260505041206 56 3 2.0 10.0 0.00 0.00 0.00 42
20260505040206 57 331 3.0 10.0 0.00 0.00 0.00 41
20260505035206 57 352 2.0 9.0 0.00 0.00 0.00 41
20260505034206 57 316 6.0 12.0 0.00 0.00 0.00 40
20260505033206 57 310 5.0 9.0 0.00 0.00 0.00 39
20260505032206 58 344 4.0 13.0 0.00 0.00 0.00 38
20260505031206 58 312 3.0 10.0 0.00 0.00 0.00 38
20260505030205 58 273 2.0 9.0 0.00 0.00 0.00 37
20260505025206 59 322 3.0 8.0 0.00 0.00 0.00 35
20260505024205 59 319 3.0 13.0 0.00 0.00 0.00 34
20260505023206 59 290 4.0 14.0 0.00 0.00 0.00 33
20260505022206 60 309 5.0 14.0 0.00 0.00 0.00 32
20260505021206 60 326 8.0 18.0 0.00 0.00 0.00 31
20260505020206 60 330 6.0 17.0 0.00 0.00 0.00 31
20260505015206 61 320 5.0 16.0 0.00 0.00 0.00 30
20260505014206 61 319 5.0 18.0 0.00 0.00 0.00 31
20260505013205 62 300 5.0 15.0 0.00 0.00 0.00 30
20260505012205 62 335 9.0 20.0 0.00 0.00 0.00 29
20260505011205 63 306 7.0 16.0 0.00 0.00 0.00 30
20260505010205 64 292 7.0 21.0 0.00 0.00 0.00 31
20260505005206 64 347 12.0 23.0 0.00 0.00 0.00 30
20260505004206 65 329 7.0 20.0 0.00 0.00 0.00 31
20260505003206 66 344 6.0 16.0 0.00 0.00 0.00 31
20260505002205 67 327 7.0 16.0 0.00 0.00 0.00 30
20260505001206 68 349 9.0 23.0 0.00 0.00 0.00 29
20260505000205 69 351 9.0 20.0 0.00 0.00 0.00 29
20260504235206 70 336 11.0 29.0 0.00 0.00 0.00 28
20260504234206 71 326 10.0 22.0 0.00 0.00 0.00 27
20260504233206 71 319 10.0 24.0 0.00 0.00 0.00 27
20260504232206 72 347 8.0 20.0 0.00 0.00 0.00 29
20260504231206 73 349 10.0 26.0 0.00 0.00 0.00 30
20260504230206 75 335 5.0 21.0 0.00 0.00 0.00 29
20260504225206 76 299 7.0 22.0 0.00 0.00 0.00 30
20260504224206 76 318 10.0 24.0 0.00 0.00 0.00 29
20260504223206 77 304 7.0 23.0 0.00 0.00 0.00 29
20260504222206 77 317 9.0 29.0 0.00 0.00 0.00 29
20260504221205 78 327 9.0 23.0 0.00 0.00 0.00 27
20260504220206 77 301 10.0 24.0 0.00 0.00 0.00 26
20260504215206 78 325 7.0 22.0 0.00 0.00 0.00 25
20260504214205 78 298 9.0 17.0 0.00 0.00 0.00 25
20260504213205 78 268 7.0 16.0 0.00 0.00 0.00 25
20260504212206 78 265 9.0 21.0 0.00 0.00 0.00 25
20260504211206 78 285 7.0 24.0 0.00 0.00 0.00 25
20260504210206 79 291 7.0 18.0 0.00 0.00 0.00 24
20260504205206 78 269 7.0 21.0 0.00 0.00 0.00 26
20260504204205 78 298 8.0 18.0 0.00 0.00 0.00 25
20260504203205 78 259 9.0 24.0 0.00 0.00 0.00 25
20260504202206 79 295 7.0 22.0 0.00 0.00 0.00 24
20260504201206 78 257 9.0 20.0 0.00 0.00 0.00 25
20260504200206 77 279 8.0 20.0 0.00 0.00 0.00 26
20260504195206 78 276 7.0 23.0 0.00 0.00 0.00 26
20260504194206 78 244 7.0 21.0 0.00 0.00 0.00 28
20260504193205 78 244 10.0 20.0 0.00 0.00 0.00 27
20260504192205 77 303 8.0 26.0 0.00 0.00 0.00 29
20260504191206 76 282 12.0 30.0 0.00 0.00 0.00 29
20260504190206 77 273 8.0 29.0 0.00 0.00 0.00 28
20260504185206 77 267 10.0 24.0 0.00 0.00 0.00 28
20260504184206 76 277 9.0 24.0 0.00 0.00 0.00 28
20260504183205 77 278 7.0 23.0 0.00 0.00 0.00 28
20260504182206 75 276 10.0 25.0 0.00 0.00 0.00 28
20260504181206 75 283 9.0 26.0 0.00 0.00 0.00 29
20260504180206 75 256 12.0 24.0 0.00 0.00 0.00 29
20260504175206 75 277 7.0 23.0 0.00 0.00 0.00 28
20260504174205 76 270 7.0 18.0 0.00 0.00 0.00 27
20260504173206 75 253 10.0 25.0 0.00 0.00 0.00 28
20260504172205 75 274 7.0 18.0 0.00 0.00 0.00 28
20260504171206 75 240 10.0 22.0 0.00 0.00 0.00 27
20260504170206 75 248 8.0 21.0 0.00 0.00 0.00 26
20260504160205 73 240 11.0 24.0 0.00 0.00 0.00 26
20260504150205 70 231 6.0 15.0 0.00 0.00 0.00 32
20260504141205 65 246 8.0 18.0 0.00 0.00 0.00 37
20260504140206 65 249 8.0 16.0 0.00 0.00 0.00 37
20260504130206 59 273 5.0 16.0 0.00 0.00 0.00 45
20260504120206 53 254 4.0 9.0 0.00 0.00 0.00 56
20260504110205 51 267 1.0 3.0 0.00 0.00 0.00 58
20260504100206 51 218 0.0 1.0 0.00 0.00 0.00 58
20260504081205 53 263 0.0 2.0 0.00 0.00 0.00 53
20260504080206 54 249 1.0 3.0 0.00 0.00 0.00 52
20260504070206 53 183 1.0 2.0 0.00 0.00 0.00 54
20260504060206 55 242 0.0 0.0 0.00 0.00 0.00 51